Location: ?????????
(41.2286°N, 23.0068°E)
Time: 07:48:16
(UTC+00:00)

Cosmos 2322 Rocket - Pass Details

Date: 08 November 2025
Orbit: 830 x 851 km, 71.0° (Epoch: 05 December)

Event Time Altitude Azimuth Distance (km) Brightness Sun altitude
Exits shadow 02:17:30 16° 5° (N) 2,075 4.3 -32.2°
Drops below altitude 10° 02:18:41 10° 11° (N) 2,477 4.8 -32.0°
Sets 02:21:18 0° 18° (NNE) 3,418 5.6 -31.5°
